Date,Time,CONDUCTIVITY,TEMPERATURE,WATER DEPTH,WATER LEVEL
10/07/2015,00:00:00,6997.9,16.1,10.88,*
11/07/2015,00:00:00,6998.6,16.1,10.88,0.62
12/07/2015,00:00:00,8012.3,16.1,10.85,0.65
13/07/2015,00:00:00,8882.9,16.0,10.82,0.68
14/07/2015,00:00:00,9724.4,16.0,10.77,0.73
15/07/2015,00:00:00,9741.8,15.9,10.72,0.78
16/07/2015,00:00:00,10043.2,16.0,10.72,0.78
17/07/2015,00:00:00,10253.9,16.0,10.70,0.80
18/07/2015,00:00:00,10234.9,16.1,10.70,0.80
19/07/2015,00:00:00,10063.5,16.1,10.69,0.81
20/07/2015,00:00:00,10171.1,16.1,10.67,0.83
21/07/2015,00:00:00,10406.5,16.0,10.67,0.83
22/07/2015,00:00:00,9696.6,16.0,10.67,0.83
23/07/2015,00:00:00,9958.3,16.0,10.70,0.80
24/07/2015,00:00:00,9929.1,16.1,10.70,0.80
25/07/2015,00:00:00,9887.0,16.0,10.73,0.77
26/07/2015,00:00:00,9725.2,16.1,10.73,0.77
27/07/2015,00:00:00,9706.5,16.1,10.73,0.77
28/07/2015,00:00:00,9715.8,16.1,10.76,0.74
29/07/2015,00:00:00,10047.5,16.1,10.74,0.76
30/07/2015,00:00:00,9827.0,16.1,10.73,0.77
31/07/2015,00:00:00,9522.3,16.1,10.74,0.76
01/08/2015,00:00:00,8960.3,16.1,10.74,0.76
02/08/2015,00:00:00,9216.5,16.2,10.79,0.71
03/08/2015,00:00:00,9458.0,16.2,10.84,0.66
04/08/2015,00:00:00,9496.8,16.2,10.82,0.68
05/08/2015,00:00:00,10296.3,16.2,10.78,0.72
06/08/2015,00:00:00,10146.1,16.1,10.76,0.74
07/08/2015,00:00:00,9676.6,16.1,10.76,0.74
08/08/2015,00:00:00,10608.1,16.1,10.77,0.74
09/08/2015,00:00:00,11397.6,16.1,10.79,0.71
10/08/2015,00:00:00,11019.6,16.2,10.80,0.70
11/08/2015,00:00:00,10198.7,16.1,10.79,0.71
12/08/2015,00:00:00,10173.8,16.1,10.80,0.70
13/08/2015,00:00:00,10506.0,16.2,10.82,0.68
14/08/2015,00:00:00,10514.0,16.1,10.79,0.71
15/08/2015,00:00:00,9921.2,15.9,10.78,0.72
16/08/2015,00:00:00,10570.1,16.0,10.79,0.71
17/08/2015,00:00:00,10471.8,16.2,10.79,0.71
18/08/2015,00:00:00,11177.0,16.1,10.83,0.67
19/08/2015,00:00:00,9738.9,16.1,10.83,0.67
20/08/2015,00:00:00,10224.5,16.2,10.84,0.66
21/08/2015,00:00:00,9392.4,16.1,10.86,0.64
22/08/2015,00:00:00,9819.7,16.2,10.84,0.66
23/08/2015,00:00:00,10501.4,16.2,10.85,0.65
24/08/2015,00:00:00,11215.8,16.2,10.84,0.66
25/08/2015,00:00:00,10045.5,16.2,10.89,0.61
26/08/2015,00:00:00,9539.9,16.2,10.97,0.53
27/08/2015,00:00:00,9369.8,16.2,10.94,0.56
28/08/2015,00:00:00,10348.4,16.2,10.90,0.60
29/08/2015,00:00:00,10231.1,16.2,10.88,0.63
30/08/2015,00:00:00,10617.9,16.1,10.88,0.62
31/08/2015,00:00:00,10109.1,16.1,10.89,0.61
01/09/2015,00:00:00,9782.0,16.1,10.85,0.65
02/09/2015,00:00:00,9570.4,16.1,10.82,0.68
03/09/2015,00:00:00,10187.8,16.1,10.81,0.69
04/09/2015,00:00:00,10383.6,16.1,10.81,0.69
05/09/2015,00:00:00,9949.6,16.1,10.83,0.67
06/09/2015,00:00:00,10595.5,16.1,10.83,0.67
07/09/2015,00:00:00,10562.3,16.1,10.82,0.68
08/09/2015,00:00:00,10310.0,16.1,10.81,0.69
09/09/2015,00:00:00,10287.5,16.1,10.81,0.69
10/09/2015,00:00:00,9728.1,16.2,10.83,0.67
11/09/2015,00:00:00,10848.1,16.1,10.82,0.69
12/09/2015,00:00:00,11240.9,16.1,10.83,0.67
13/09/2015,00:00:00,10843.2,16.2,10.85,0.65
14/09/2015,00:00:00,9774.6,16.1,10.87,0.63
15/09/2015,00:00:00,10881.4,16.1,10.84,0.66
16/09/2015,00:00:00,10690.5,16.1,10.82,0.68
17/09/2015,00:00:00,11967.8,16.1,10.81,0.69
18/09/2015,00:00:00,11689.1,16.1,10.81,0.69
19/09/2015,00:00:00,11310.7,16.1,10.82,0.68
20/09/2015,00:00:00,10849.8,16.0,10.83,0.67
21/09/2015,00:00:00,10906.3,16.1,10.82,0.68
22/09/2015,00:00:00,11256.2,15.9,10.79,0.71
23/09/2015,00:00:00,10892.9,15.9,10.79,0.71
24/09/2015,00:00:00,11249.9,16.0,10.83,0.67
25/09/2015,00:00:00,12392.6,16.0,10.83,0.67
26/09/2015,00:00:00,11675.6,16.1,10.83,0.67
27/09/2015,00:00:00,11963.8,16.0,10.80,0.70
28/09/2015,00:00:00,12010.5,16.0,10.83,0.67
29/09/2015,00:00:00,11644.1,16.0,10.84,0.66
30/09/2015,00:00:00,12090.1,16.0,10.83,0.67
01/10/2015,00:00:00,12225.1,16.0,10.84,0.66
02/10/2015,00:00:00,12203.5,15.9,10.87,0.63
03/10/2015,00:00:00,11517.2,15.9,10.88,0.62
04/10/2015,00:00:00,11548.8,15.9,10.89,0.61
05/10/2015,00:00:00,11781.1,16.0,10.88,0.62
06/10/2015,00:00:00,12737.5,16.0,10.83,0.67
07/10/2015,00:00:00,12782.0,16.0,10.78,0.72
08/10/2015,00:00:00,12881.6,16.0,10.78,0.72
09/10/2015,00:00:00,11709.0,16.0,10.82,0.68
10/10/2015,00:00:00,12272.1,16.0,10.85,0.65
11/10/2015,00:00:00,12671.8,16.0,10.84,0.66
12/10/2015,00:00:00,12150.0,15.9,10.81,0.70
13/10/2015,00:00:00,12271.8,16.0,10.85,0.65
14/10/2015,00:00:00,12446.6,16.0,10.89,0.61
15/10/2015,00:00:00,12621.5,16.0,10.90,0.60
16/10/2015,00:00:00,12574.5,16.0,10.89,0.61
17/10/2015,00:00:00,12220.9,16.0,10.89,0.61
18/10/2015,00:00:00,12424.6,16.0,10.90,0.60
19/10/2015,00:00:00,12969.3,16.0,10.90,0.60
20/10/2015,00:00:00,13237.7,16.0,10.88,0.62
21/10/2015,00:00:00,12777.1,16.0,10.85,0.65
22/10/2015,00:00:00,13073.3,15.9,10.87,0.63
23/10/2015,00:00:00,13018.6,16.0,10.84,0.66
24/10/2015,00:00:00,12372.2,15.9,10.85,0.65
25/10/2015,00:00:00,12359.9,15.9,10.99,0.52
26/10/2015,00:00:00,11394.3,15.7,11.34,0.16
27/10/2015,00:00:00,2349.7,14.9,11.44,0.06
28/10/2015,00:00:00,2862.3,15.0,11.16,0.34
29/10/2015,00:00:00,3625.8,15.2,11.00,0.50
30/10/2015,00:00:00,3062.2,15.4,10.94,0.56
31/10/2015,00:00:00,6775.6,15.4,10.91,0.59
01/11/2015,00:00:00,8423.5,15.4,10.92,0.58
02/11/2015,00:00:00,9480.2,15.5,10.94,0.56
03/11/2015,00:00:00,9898.5,15.5,10.92,0.58
04/11/2015,00:00:00,10088.9,15.6,10.89,0.61
05/11/2015,00:00:00,10805.6,15.7,10.87,0.62
06/11/2015,00:00:00,11912.7,15.6,10.84,0.66
07/11/2015,00:00:00,10491.0,15.6,10.85,0.65
08/11/2015,00:00:00,9660.3,15.6,10.86,0.64
09/11/2015,00:00:00,9143.6,15.6,10.89,0.61
10/11/2015,00:00:00,9048.8,15.6,10.86,0.64
11/11/2015,00:00:00,9462.6,15.6,10.82,0.68
12/11/2015,00:00:00,9850.6,15.7,10.84,0.66
13/11/2015,00:00:00,8907.2,15.7,10.87,0.63
14/11/2015,00:00:00,8570.1,15.7,10.89,0.61
15/11/2015,00:00:00,8618.2,15.7,10.86,0.64
16/11/2015,00:00:00,9033.8,15.7,10.80,0.70
17/11/2015,00:00:00,9569.9,15.7,10.78,0.72
18/11/2015,00:00:00,10410.8,15.7,10.83,0.67
19/11/2015,00:00:00,10160.4,15.7,10.85,0.65
20/11/2015,00:00:00,10641.9,15.7,10.87,0.63
21/11/2015,00:00:00,10207.8,15.6,10.86,0.64
22/11/2015,00:00:00,10766.8,15.7,10.79,0.71
23/11/2015,00:00:00,10250.3,15.7,10.80,0.70
24/11/2015,00:00:00,9914.1,15.7,10.87,0.63
25/11/2015,00:00:00,11335.8,15.7,10.89,0.61
26/11/2015,00:00:00,11977.0,15.7,10.80,0.70
27/11/2015,00:00:00,13006.1,15.7,10.76,0.75
28/11/2015,00:00:00,13512.4,15.7,10.84,0.66
29/11/2015,00:00:00,13261.7,15.7,10.94,0.56
30/11/2015,00:00:00,12927.5,15.6,11.01,0.49
01/12/2015,00:00:00,12645.6,15.6,11.02,0.48
02/12/2015,00:00:00,10961.3,15.5,11.00,0.50
03/12/2015,00:00:00,11355.9,15.5,10.97,0.53
04/12/2015,00:00:00,11541.8,15.4,11.00,0.50
05/12/2015,00:00:00,12225.3,15.5,11.02,0.48
06/12/2015,00:00:00,12399.5,15.5,11.02,0.48
07/12/2015,00:00:00,11805.9,15.5,11.02,0.48
08/12/2015,00:00:00,12081.6,15.5,11.00,0.50
09/12/2015,00:00:00,12123.3,15.5,10.97,0.53
10/12/2015,00:00:00,11992.0,15.5,10.94,0.55
11/12/2015,00:00:00,11401.6,15.5,10.93,0.57
12/12/2015,00:00:00,11298.9,15.5,10.90,0.59
13/12/2015,00:00:00,11595.0,15.4,10.89,0.61
14/12/2015,00:00:00,11576.6,15.5,10.93,0.57
15/12/2015,00:00:00,12292.2,15.5,10.99,0.51
16/12/2015,00:00:00,11214.7,15.4,11.00,0.50
17/12/2015,00:00:00,9288.3,15.2,10.98,0.52
18/12/2015,00:00:00,9109.2,15.2,10.94,0.56
19/12/2015,00:00:00,10026.8,15.2,10.98,0.52
20/12/2015,00:00:00,10543.8,15.2,11.09,0.41
21/12/2015,00:00:00,7218.5,14.9,11.07,0.43
22/12/2015,00:00:00,7133.6,14.9,11.06,0.44
23/12/2015,00:00:00,7794.5,14.9,11.03,0.47
24/12/2015,00:00:00,8506.8,15.0,11.00,0.50
25/12/2015,00:00:00,9098.6,15.1,10.99,0.51
26/12/2015,00:00:00,10083.7,15.0,10.98,0.52
27/12/2015,00:00:00,9975.9,15.1,10.98,0.52
28/12/2015,00:00:00,10624.7,15.1,10.98,0.52
29/12/2015,00:00:00,10226.0,15.2,10.95,0.55
30/12/2015,00:00:00,10252.6,15.2,10.89,0.61
31/12/2015,00:00:00,10570.8,15.2,10.89,0.61
01/01/2016,00:00:00,9894.8,14.9,10.93,0.57
02/01/2016,00:00:00,9303.2,14.9,10.97,0.53
03/01/2016,00:00:00,9252.2,15.1,10.95,0.55
04/01/2016,00:00:00,9074.2,15.1,10.91,0.59
05/01/2016,00:00:00,8974.3,15.2,11.10,0.40
06/01/2016,00:00:00,1757.8,14.5,11.27,0.23
07/01/2016,00:00:00,1696.3,14.0,11.18,0.32
08/01/2016,00:00:00,2895.7,14.0,11.00,0.50
09/01/2016,00:00:00,2103.9,14.2,11.07,0.43
10/01/2016,00:00:00,4712.1,14.3,11.07,0.43
11/01/2016,00:00:00,6420.9,14.5,11.02,0.48
12/01/2016,00:00:00,7677.6,14.6,11.01,0.49
13/01/2016,00:00:00,8049.7,14.7,10.98,0.52
14/01/2016,00:00:00,8164.8,14.8,10.97,0.53
15/01/2016,00:00:00,8619.9,14.8,10.99,0.51
16/01/2016,00:00:00,8572.4,14.8,10.97,0.53
17/01/2016,00:00:00,8872.9,14.9,10.90,0.60
18/01/2016,00:00:00,8672.0,14.9,10.83,0.67
19/01/2016,00:00:00,8827.7,14.8,10.92,0.58
20/01/2016,00:00:00,7768.1,14.8,11.05,0.45
21/01/2016,00:00:00,7393.6,14.8,11.02,0.48
22/01/2016,00:00:00,7485.1,14.8,11.13,0.37
23/01/2016,00:00:00,5977.6,14.6,11.22,0.28
24/01/2016,00:00:00,5021.0,14.4,11.22,0.28
25/01/2016,00:00:00,4982.8,14.3,11.23,0.27
26/01/2016,00:00:00,5024.8,14.4,11.19,0.31
27/01/2016,00:00:00,5036.7,14.5,11.14,0.36
28/01/2016,00:00:00,5187.4,14.5,11.18,0.32
29/01/2016,00:00:00,5416.6,14.6,11.17,0.33
30/01/2016,00:00:00,5265.4,14.7,11.16,0.34
31/01/2016,00:00:00,5448.1,14.8,11.14,0.36
01/02/2016,00:00:00,5443.5,14.8,11.10,0.40
02/02/2016,00:00:00,5333.3,14.9,11.08,0.42
03/02/2016,00:00:00,5488.4,14.9,11.11,0.39
04/02/2016,00:00:00,5512.2,14.9,11.08,0.42
05/02/2016,00:00:00,6124.4,14.9,11.02,0.48
06/02/2016,00:00:00,6216.1,14.8,10.97,0.53
07/02/2016,00:00:00,4726.4,14.6,11.43,0.07
08/02/2016,00:00:00,1511.3,14.5,11.33,0.17
09/02/2016,00:00:00,2511.7,15.1,11.22,0.28
10/02/2016,00:00:00,2461.3,15.1,11.16,0.34
11/02/2016,00:00:00,2730.5,15.0,11.06,0.44
12/02/2016,00:00:00,4432.8,15.1,11.05,0.45
13/02/2016,00:00:00,4919.4,15.0,11.12,0.38
14/02/2016,00:00:00,4171.8,14.9,11.07,0.43
15/02/2016,00:00:00,3996.8,14.8,11.07,0.43
16/02/2016,00:00:00,4221.4,14.7,11.11,0.39
17/02/2016,00:00:00,4706.2,14.6,11.15,0.35
18/02/2016,00:00:00,5322.2,14.7,11.10,0.40
19/02/2016,00:00:00,5983.5,14.7,10.99,0.51
20/02/2016,00:00:00,6304.3,14.8,11.00,0.50
21/02/2016,00:00:00,6634.3,14.8,11.02,0.48
22/02/2016,00:00:00,6573.5,14.7,11.00,0.50
23/02/2016,00:00:00,6962.3,14.9,11.00,0.50
24/02/2016,00:00:00,6995.1,15.0,10.96,0.54
25/02/2016,00:00:00,7005.0,14.9,10.91,0.59
26/02/2016,00:00:00,7066.1,15.0,10.92,0.58
27/02/2016,00:00:00,6569.2,15.1,10.90,0.60
28/02/2016,00:00:00,7264.9,15.0,10.92,0.58
29/02/2016,00:00:00,*,*,*,*
01/03/2016,00:00:00,7581.4,15.0,10.93,0.57
02/03/2016,00:00:00,7753.0,15.2,10.90,0.60
03/03/2016,00:00:00,*,*,*,*
04/03/2016,00:00:00,7695.5,15.1,10.85,0.65
05/03/2016,00:00:00,7961.1,15.2,10.87,0.63
06/03/2016,00:00:00,8185.1,15.2,10.96,0.54
07/03/2016,00:00:00,7823.8,15.2,10.96,0.54
08/03/2016,00:00:00,7990.8,15.1,10.91,0.59
09/03/2016,00:00:00,8377.0,15.1,10.88,0.62
10/03/2016,00:00:00,8542.1,15.2,10.84,0.66
11/03/2016,00:00:00,8997.8,15.2,10.88,0.62
12/03/2016,00:00:00,8987.2,15.2,10.92,0.58
13/03/2016,00:00:00,*,*,*,*
14/03/2016,00:00:00,9780.2,15.3,10.84,0.66
15/03/2016,00:00:00,9339.6,15.2,10.86,0.64
16/03/2016,00:00:00,8704.8,15.1,11.02,0.48
17/03/2016,00:00:00,7825.7,15.0,11.08,0.42
18/03/2016,00:00:00,6441.3,14.8,11.09,0.41
19/03/2016,00:00:00,6152.8,14.8,11.01,0.49
20/03/2016,00:00:00,7011.7,15.0,10.93,0.57
21/03/2016,00:00:00,7133.6,15.0,10.97,0.53
22/03/2016,00:00:00,7598.6,15.1,10.98,0.52
23/03/2016,00:00:00,7944.3,15.1,10.91,0.59
24/03/2016,00:00:00,7704.6,15.0,10.82,0.68
25/03/2016,00:00:00,7763.6,15.2,10.84,0.66
26/03/2016,00:00:00,7570.8,15.2,10.90,0.60
27/03/2016,00:00:00,8164.6,15.0,10.93,0.57
28/03/2016,00:00:00,8404.6,15.0,10.90,0.60
29/03/2016,00:00:00,7819.1,15.1,10.94,0.56
30/03/2016,00:00:00,9058.5,15.2,10.95,0.55
31/03/2016,00:00:00,9889.4,15.3,10.96,0.54
01/04/2016,00:00:00,9277.9,15.3,10.97,0.53
02/04/2016,00:00:00,10062.3,15.3,10.94,0.56
03/04/2016,00:00:00,10008.4,15.3,10.92,0.58
04/04/2016,00:00:00,10013.5,15.4,10.91,0.59
05/04/2016,00:00:00,9966.3,15.5,10.88,0.62
06/04/2016,00:00:00,*,*,*,*
07/04/2016,00:00:00,10757.7,15.5,10.84,0.66
08/04/2016,00:00:00,10336.5,15.3,10.82,0.68
09/04/2016,00:00:00,10477.9,15.6,10.79,0.71
10/04/2016,00:00:00,10751.0,15.7,10.81,0.69
11/04/2016,00:00:00,10815.0,15.6,10.83,0.67
12/04/2016,00:00:00,11032.4,15.6,10.85,0.65
13/04/2016,00:00:00,11435.9,15.6,10.87,0.63
14/04/2016,00:00:00,11541.9,15.7,10.87,0.63
15/04/2016,00:00:00,11772.0,15.7,10.86,0.64
16/04/2016,00:00:00,11251.1,15.8,10.86,0.64
17/04/2016,00:00:00,*,*,*,*
18/04/2016,00:00:00,*,*,*,*
19/04/2016,00:00:00,11676.7,15.7,10.92,0.58
20/04/2016,00:00:00,11580.8,15.7,10.89,0.61
21/04/2016,00:00:00,11393.3,15.7,10.85,0.65
22/04/2016,00:00:00,12076.4,15.8,10.93,0.57
23/04/2016,00:00:00,11517.0,15.8,10.91,0.59
24/04/2016,00:00:00,11631.3,15.8,10.84,0.66
25/04/2016,00:00:00,11150.2,15.8,10.77,0.73
26/04/2016,00:00:00,11829.9,15.8,10.78,0.72
27/04/2016,00:00:00,11583.9,15.7,10.82,0.68
28/04/2016,00:00:00,10980.9,15.8,10.87,0.63
29/04/2016,00:00:00,11363.1,15.8,10.87,0.63
30/04/2016,00:00:00,10877.6,15.8,10.83,0.67
01/05/2016,00:00:00,11381.2,15.9,10.80,0.70
02/05/2016,00:00:00,11346.9,15.8,10.83,0.67
03/05/2016,00:00:00,10956.9,15.7,10.80,0.70
04/05/2016,00:00:00,11077.0,15.9,10.79,0.71
05/05/2016,00:00:00,11365.9,15.7,10.79,0.71
06/05/2016,00:00:00,11778.3,15.8,10.81,0.69
07/05/2016,00:00:00,12035.2,15.9,10.83,0.67
08/05/2016,00:00:00,12151.3,15.9,10.83,0.67
09/05/2016,00:00:00,11914.3,15.9,10.82,0.68
10/05/2016,00:00:00,11846.3,16.0,10.84,0.66
11/05/2016,00:00:00,11894.7,16.0,10.84,0.66
12/05/2016,00:00:00,11229.2,15.9,10.83,0.67
13/05/2016,00:00:00,10505.1,16.1,10.82,0.68
14/05/2016,00:00:00,11595.6,16.1,10.83,0.67
15/05/2016,00:00:00,12652.5,15.8,10.88,0.62
16/05/2016,00:00:00,12768.0,15.7,10.91,0.59
17/05/2016,00:00:00,12933.6,16.0,10.93,0.57
18/05/2016,00:00:00,13742.2,16.0,10.91,0.59
19/05/2016,00:00:00,13204.1,16.0,10.90,0.60
20/05/2016,00:00:00,13028.2,16.1,10.92,0.58
21/05/2016,00:00:00,13374.5,15.9,10.91,0.59
22/05/2016,00:00:00,*,*,*,*
23/05/2016,00:00:00,12085.9,16.1,10.89,0.61
24/05/2016,00:00:00,13517.9,16.1,10.92,0.58
25/05/2016,00:00:00,12814.9,16.1,10.87,0.63
26/05/2016,00:00:00,11695.8,16.1,10.81,0.69
27/05/2016,00:00:00,12229.5,16.0,10.77,0.73
28/05/2016,00:00:00,13957.7,16.1,10.76,0.74
29/05/2016,00:00:00,13507.1,16.0,10.76,0.74
30/05/2016,00:00:00,13518.2,16.1,10.75,0.75
31/05/2016,00:00:00,13947.1,16.1,10.74,0.76
01/06/2016,00:00:00,14383.0,16.2,10.74,0.76
02/06/2016,00:00:00,14297.3,16.1,10.74,0.76
03/06/2016,00:00:00,14304.3,16.1,10.70,0.80
04/06/2016,00:00:00,14329.8,16.1,10.66,0.84
05/06/2016,00:00:00,14071.0,16.1,10.66,0.84
06/06/2016,00:00:00,13745.7,16.2,10.69,0.81
07/06/2016,00:00:00,13216.2,16.1,10.69,0.81
08/06/2016,00:00:00,12154.7,16.2,10.69,0.81
09/06/2016,00:00:00,11774.1,16.2,10.69,0.81
10/06/2016,00:00:00,12043.5,16.1,10.69,0.81
11/06/2016,00:00:00,11518.0,16.1,10.67,0.83
12/06/2016,00:00:00,11520.0,16.2,10.70,0.80
13/06/2016,00:00:00,11493.0,16.2,10.70,0.80
14/06/2016,00:00:00,10843.1,16.1,10.65,0.85
15/06/2016,00:00:00,12124.8,16.3,10.62,0.88
16/06/2016,00:00:00,12477.1,16.3,10.69,0.81
17/06/2016,00:00:00,12447.6,16.3,10.73,0.77
18/06/2016,00:00:00,12229.9,16.3,10.75,0.75
19/06/2016,00:00:00,12128.3,16.3,10.74,0.76
20/06/2016,00:00:00,12627.5,16.3,10.73,0.77
21/06/2016,00:00:00,12626.4,16.4,10.74,0.76
22/06/2016,00:00:00,12212.7,16.4,10.76,0.74
23/06/2016,00:00:00,12800.1,16.5,10.76,0.74
24/06/2016,00:00:00,12239.7,16.6,10.76,0.74
25/06/2016,00:00:00,12816.7,16.5,10.73,0.77
26/06/2016,00:00:00,12477.9,16.5,10.71,0.79
27/06/2016,00:00:00,12985.0,16.3,10.74,0.76
28/06/2016,00:00:00,12070.1,16.4,10.75,0.75
29/06/2016,00:00:00,12025.0,16.5,10.73,0.77
30/06/2016,00:00:00,12337.0,16.5,10.74,0.76
01/07/2016,00:00:00,12883.8,16.4,10.78,0.72
02/07/2016,00:00:00,12829.6,16.5,10.77,0.73
03/07/2016,00:00:00,13393.8,16.5,10.75,0.75
04/07/2016,00:00:00,12584.7,16.5,10.74,0.76
05/07/2016,00:00:00,11767.3,16.6,10.74,0.76
06/07/2016,00:00:00,11692.3,16.6,10.75,0.75
07/07/2016,00:00:00,11837.5,16.5,10.74,0.76
08/07/2016,00:00:00,10705.4,16.4,10.72,0.78
09/07/2016,00:00:00,11592.7,16.5,10.74,0.76
10/07/2016,00:00:00,10697.4,16.4,10.73,0.77
11/07/2016,00:00:00,10373.0,16.4,10.72,0.78
12/07/2016,00:00:00,11197.8,16.5,10.71,0.79
13/07/2016,00:00:00,11174.5,16.5,10.70,0.80
14/07/2016,00:00:00,11596.4,16.5,10.69,0.81
15/07/2016,00:00:00,12230.8,16.5,10.68,0.82
16/07/2016,00:00:00,12418.8,16.5,10.66,0.84
17/07/2016,00:00:00,11835.5,16.5,10.69,0.81
18/07/2016,00:00:00,11702.6,16.5,10.71,0.79
19/07/2016,00:00:00,11189.6,16.5,10.71,0.79
20/07/2016,00:00:00,11494.5,16.5,10.69,0.81
21/07/2016,00:00:00,12661.2,16.5,10.69,0.81
22/07/2016,00:00:00,12781.2,16.5,10.72,0.78
23/07/2016,00:00:00,13206.9,16.5,10.72,0.78
24/07/2016,00:00:00,13877.0,16.5,10.71,0.79
25/07/2016,00:00:00,14035.8,16.5,10.69,0.81
26/07/2016,00:00:00,13131.9,16.5,10.67,0.83
27/07/2016,00:00:00,13071.0,16.5,10.69,0.81
28/07/2016,00:00:00,14669.4,16.6,10.70,0.80
29/07/2016,00:00:00,16666.9,16.5,10.70,0.80
30/07/2016,00:00:00,16160.8,16.5,10.69,0.81
31/07/2016,00:00:00,15444.3,16.5,10.69,0.81
01/08/2016,00:00:00,15048.8,16.6,10.70,0.80
02/08/2016,00:00:00,15311.7,16.5,10.71,0.79
03/08/2016,00:00:00,15312.8,16.5,10.70,0.80
04/08/2016,00:00:00,15276.7,16.6,10.69,0.81
05/08/2016,00:00:00,15703.0,16.7,10.70,0.80
06/08/2016,00:00:00,16368.6,16.7,10.70,0.80
07/08/2016,00:00:00,16501.7,16.6,10.70,0.80
08/08/2016,00:00:00,16531.1,16.6,10.70,0.80
09/08/2016,00:00:00,15878.2,16.6,10.68,0.82
10/08/2016,00:00:00,16243.0,16.6,10.67,0.83
11/08/2016,00:00:00,16007.6,16.6,10.67,0.83
12/08/2016,00:00:00,15605.4,16.7,10.69,0.81
13/08/2016,00:00:00,15513.7,16.6,10.70,0.80
14/08/2016,00:00:00,14585.1,16.6,10.73,0.77
15/08/2016,00:00:00,15071.8,16.5,10.73,0.77
16/08/2016,00:00:00,15191.5,16.5,10.69,0.81
17/08/2016,00:00:00,14786.8,16.5,10.66,0.84
18/08/2016,00:00:00,14411.8,16.5,10.64,0.86
19/08/2016,00:00:00,14313.4,16.5,10.63,0.87
20/08/2016,00:00:00,14829.5,16.5,10.64,0.86
21/08/2016,00:00:00,14611.9,16.6,10.66,0.84
22/08/2016,00:00:00,14359.9,16.7,10.68,0.82
23/08/2016,00:00:00,14824.7,16.6,10.69,0.81
24/08/2016,00:00:00,15530.6,16.6,10.67,0.83
25/08/2016,00:00:00,15329.3,16.6,10.66,0.84
26/08/2016,00:00:00,14691.1,16.6,10.65,0.85
27/08/2016,00:00:00,16149.8,16.5,10.68,0.82
28/08/2016,00:00:00,16147.1,16.6,10.71,0.79
29/08/2016,00:00:00,16313.7,16.5,10.70,0.80
30/08/2016,00:00:00,15470.9,16.5,10.69,0.81
31/08/2016,00:00:00,15885.9,16.5,10.69,0.81
01/09/2016,00:00:00,15936.4,16.6,10.70,0.80
02/09/2016,00:00:00,16443.3,16.7,10.70,0.80
03/09/2016,00:00:00,15276.7,16.5,10.69,0.81
04/09/2016,00:00:00,14971.3,16.4,10.68,0.82
05/09/2016,00:00:00,15237.2,16.4,10.70,0.80
06/09/2016,00:00:00,15220.7,16.5,10.72,0.78
07/09/2016,00:00:00,14926.9,16.4,10.70,0.80
08/09/2016,00:00:00,15230.0,16.5,10.71,0.79
09/09/2016,00:00:00,16156.7,16.5,10.69,0.81
10/09/2016,00:00:00,16047.8,16.4,10.68,0.82
11/09/2016,00:00:00,15991.3,16.5,10.70,0.80
12/09/2016,00:00:00,15934.3,16.5,10.73,0.77
13/09/2016,00:00:00,16576.7,16.5,10.73,0.77
14/09/2016,00:00:00,17074.9,16.5,10.71,0.79
15/09/2016,00:00:00,17244.1,16.4,10.71,0.79
16/09/2016,00:00:00,16602.9,16.5,10.72,0.78
17/09/2016,00:00:00,16826.9,16.5,10.74,0.76
18/09/2016,00:00:00,16737.1,16.5,10.74,0.76
19/09/2016,00:00:00,16598.6,16.5,10.72,0.78
20/09/2016,00:00:00,15621.7,16.5,10.71,0.79
21/09/2016,00:00:00,16735.4,16.3,10.72,0.78
22/09/2016,00:00:00,16326.7,16.4,10.74,0.76
23/09/2016,00:00:00,16762.3,16.3,10.76,0.74
24/09/2016,00:00:00,17690.6,16.4,10.80,0.70
25/09/2016,00:00:00,17731.1,16.2,10.80,0.70
26/09/2016,00:00:00,17612.1,16.3,10.74,0.76
27/09/2016,00:00:00,16620.3,16.2,10.73,0.77
28/09/2016,00:00:00,15834.9,16.3,10.77,0.73
29/09/2016,00:00:00,15586.6,16.3,10.81,0.69
30/09/2016,00:00:00,15984.7,16.3,10.80,0.70
01/10/2016,00:00:00,15442.8,16.3,10.75,0.75
02/10/2016,00:00:00,16063.3,16.3,10.72,0.78
03/10/2016,00:00:00,17180.0,16.3,10.72,0.78
04/10/2016,00:00:00,16491.9,16.4,10.73,0.77
05/10/2016,00:00:00,16288.4,16.4,10.70,0.80
06/10/2016,00:00:00,16357.5,16.4,10.69,0.81
07/10/2016,00:00:00,17359.3,16.3,10.71,0.79
08/10/2016,00:00:00,17313.4,16.3,10.72,0.78
09/10/2016,00:00:00,17390.4,16.4,10.72,0.78
10/10/2016,00:00:00,17438.4,16.3,10.76,0.74
11/10/2016,00:00:00,17534.6,16.3,10.75,0.75
12/10/2016,00:00:00,17525.9,16.2,10.71,0.79
13/10/2016,00:00:00,17003.5,16.5,10.73,0.77
14/10/2016,00:00:00,16419.0,16.3,10.77,0.73
15/10/2016,00:00:00,16428.6,16.3,10.78,0.72
16/10/2016,00:00:00,16399.9,16.3,10.81,0.69
17/10/2016,00:00:00,17197.3,16.3,10.80,0.70
18/10/2016,00:00:00,16992.0,16.2,10.79,0.71
19/10/2016,00:00:00,16901.9,16.1,10.86,0.64
20/10/2016,00:00:00,17315.3,16.1,10.85,0.65
21/10/2016,00:00:00,17484.4,16.1,10.80,0.70
22/10/2016,00:00:00,17232.6,16.2,10.78,0.72
23/10/2016,00:00:00,17491.1,16.3,10.79,0.71
24/10/2016,00:00:00,17164.2,16.3,10.79,0.71
25/10/2016,00:00:00,16901.1,16.2,10.82,0.68
26/10/2016,00:00:00,16753.0,16.1,10.85,0.65
27/10/2016,00:00:00,17765.4,16.1,10.83,0.67
28/10/2016,00:00:00,17053.8,16.1,10.81,0.69
29/10/2016,00:00:00,17736.8,16.1,10.82,0.68
30/10/2016,00:00:00,17833.9,16.0,10.84,0.66
31/10/2016,00:00:00,18254.8,16.2,10.81,0.69
01/11/2016,00:00:00,17277.0,16.0,10.79,0.71
02/11/2016,00:00:00,17969.0,15.8,10.84,0.66
03/11/2016,00:00:00,17642.5,15.9,10.82,0.68
04/11/2016,00:00:00,16573.6,16.0,10.80,0.70
05/11/2016,00:00:00,16137.9,16.0,10.81,0.69
06/11/2016,00:00:00,16504.4,16.1,10.80,0.70
07/11/2016,00:00:00,16589.4,16.0,10.79,0.71
08/11/2016,00:00:00,16780.4,16.1,10.78,0.72
09/11/2016,00:00:00,16261.6,16.2,10.77,0.73
10/11/2016,00:00:00,16612.3,16.4,10.78,0.72
11/11/2016,00:00:00,16528.3,16.1,10.85,0.65
12/11/2016,00:00:00,16564.8,16.1,10.88,0.62
13/11/2016,00:00:00,17825.0,16.1,10.86,0.64
14/11/2016,00:00:00,17806.6,16.1,10.86,0.64
15/11/2016,00:00:00,18373.0,16.1,10.86,0.64
16/11/2016,00:00:00,18691.3,15.8,10.87,0.63
17/11/2016,00:00:00,18510.9,15.8,10.84,0.66
18/11/2016,00:00:00,18608.5,15.9,10.81,0.69
19/11/2016,00:00:00,18484.9,15.9,10.82,0.68
20/11/2016,00:00:00,18078.6,15.9,10.81,0.69
21/11/2016,00:00:00,18206.5,16.0,10.80,0.70
22/11/2016,00:00:00,17570.2,16.0,10.81,0.69
23/11/2016,00:00:00,17474.9,16.0,10.81,0.69
24/11/2016,00:00:00,17966.6,16.0,10.83,0.67
25/11/2016,00:00:00,18140.6,16.0,10.83,0.67
26/11/2016,00:00:00,17894.8,16.0,10.81,0.69
27/11/2016,00:00:00,17708.0,15.9,10.81,0.69
28/11/2016,00:00:00,17478.4,16.0,10.79,0.71
29/11/2016,00:00:00,18023.1,16.0,10.74,0.76
30/11/2016,00:00:00,17433.3,16.0,10.75,0.75
01/12/2016,00:00:00,15874.6,15.7,10.87,0.63
02/12/2016,00:00:00,16377.9,15.7,11.12,0.38
03/12/2016,00:00:00,13775.2,15.8,10.87,0.63
04/12/2016,00:00:00,9145.6,15.4,10.84,0.66
05/12/2016,00:00:00,11414.5,15.5,10.84,0.66
06/12/2016,00:00:00,11842.6,15.6,10.86,0.64
07/12/2016,00:00:00,14887.1,15.7,10.88,0.62
08/12/2016,00:00:00,15963.6,15.7,10.89,0.61
09/12/2016,00:00:00,16013.3,15.6,10.93,0.57
10/12/2016,00:00:00,15023.8,15.6,10.89,0.61
11/12/2016,00:00:00,14934.8,15.6,10.82,0.68
12/12/2016,00:00:00,15757.4,15.6,10.78,0.72
13/12/2016,00:00:00,15441.6,15.6,10.72,0.78
14/12/2016,00:00:00,15352.5,15.5,10.75,0.75
15/12/2016,00:00:00,15960.3,15.5,10.95,0.55
16/12/2016,00:00:00,15680.7,15.7,10.87,0.63
17/12/2016,00:00:00,12190.8,15.5,10.87,0.63
18/12/2016,00:00:00,11198.1,15.2,10.91,0.59
19/12/2016,00:00:00,11881.2,15.3,10.90,0.60
20/12/2016,00:00:00,13231.5,15.4,10.89,0.61
21/12/2016,00:00:00,13418.0,15.5,10.85,0.65
22/12/2016,00:00:00,12935.0,15.3,10.81,0.69
23/12/2016,00:00:00,12927.9,15.2,10.84,0.66
24/12/2016,00:00:00,11764.3,15.4,11.01,0.49
25/12/2016,00:00:00,4664.0,15.1,11.26,0.24
26/12/2016,00:00:00,807.5,15.5,11.40,0.10
27/12/2016,00:00:00,665.1,15.5,11.22,0.28
28/12/2016,00:00:00,702.1,15.6,11.11,0.39